TimeEDT,TemperatureF,Dew PointF,Humidity,Sea Level PressureIn,VisibilityMPH,Wind Direction,Wind SpeedMPH,Gust SpeedMPH,PrecipitationIn,Events,Conditions,WindDirDegrees,DateUTC
12:53 AM,64.0,62.1,93,29.65,10.0,South,9.2,18.4,0.01,,Overcast,170,2013-04-12 04:53:00
1:53 AM,64.0,62.1,93,29.65,7.0,South,10.4,21.9,0.03,Rain,Light Rain,180,2013-04-12 05:53:00
2:06 AM,64.4,62.6,94,29.68,10.0,South,8.1,16.1,0.00,,Overcast,180,2013-04-12 06:06:00
2:53 AM,64.9,64.0,97,29.64,10.0,SSW,5.8,-,0.03,,Overcast,210,2013-04-12 06:53:00
3:03 AM,64.4,64.4,100,29.68,5.0,Variable,5.8,-,0.02,Rain,Light Rain,0,2013-04-12 07:03:00
3:14 AM,62.6,62.6,100,29.68,10.0,Calm,Calm,-,0.02,Rain,Light Rain,0,2013-04-12 07:14:00
3:21 AM,62.6,62.6,100,29.69,10.0,Variable,3.5,-,0.02,Rain,Light Rain,0,2013-04-12 07:21:00
3:50 AM,62.6,60.8,94,29.70,10.0,Calm,Calm,-,0.02,,Overcast,0,2013-04-12 07:50:00
3:53 AM,62.1,61.0,96,29.67,10.0,Calm,Calm,-,0.02,,Overcast,0,2013-04-12 07:53:00
4:32 AM,60.8,60.8,100,29.72,10.0,Calm,Calm,-,N/A,,Overcast,0,2013-04-12 08:32:00
4:46 AM,60.8,59.0,94,29.73,10.0,Calm,Calm,-,N/A,,Overcast,0,2013-04-12 08:46:00
4:53 AM,60.1,59.0,96,29.71,10.0,Calm,Calm,-,N/A,,Overcast,0,2013-04-12 08:53:00
5:35 AM,57.2,57.2,100,29.75,10.0,Calm,Calm,-,N/A,,Overcast,0,2013-04-12 09:35:00
5:53 AM,57.9,57.0,97,29.73,10.0,Variable,3.5,-,N/A,,Overcast,0,2013-04-12 09:53:00
6:18 AM,57.2,55.4,94,29.77,10.0,Calm,Calm,-,N/A,,Overcast,0,2013-04-12 10:18:00
6:48 AM,55.4,55.4,100,29.80,10.0,Variable,4.6,-,N/A,,Overcast,0,2013-04-12 10:48:00
6:53 AM,55.9,55.0,97,29.77,10.0,Calm,Calm,-,N/A,,Overcast,0,2013-04-12 10:53:00
7:46 AM,53.6,51.8,94,29.83,10.0,Variable,3.5,-,N/A,,Overcast,0,2013-04-12 11:46:00
7:53 AM,54.0,51.1,90,29.81,10.0,Variable,3.5,-,N/A,,Overcast,0,2013-04-12 11:53:00
8:10 AM,53.6,50.0,88,29.84,10.0,Variable,4.6,-,N/A,,Overcast,0,2013-04-12 12:10:00
8:53 AM,54.0,50.0,86,29.83,10.0,Calm,Calm,-,N/A,,Overcast,0,2013-04-12 12:53:00
9:16 AM,55.4,50.0,82,29.86,10.0,Calm,Calm,-,N/A,,Scattered Clouds,0,2013-04-12 13:16:00
9:31 AM,55.4,48.2,77,29.86,10.0,Calm,Calm,-,N/A,,Mostly Cloudy,0,2013-04-12 13:31:00
9:53 AM,55.9,48.9,77,29.85,10.0,Calm,Calm,-,N/A,,Overcast,0,2013-04-12 13:53:00
10:53 AM,57.9,46.9,67,29.86,10.0,Variable,3.5,-,N/A,,Mostly Cloudy,0,2013-04-12 14:53:00
11:21 AM,60.8,46.4,59,29.89,10.0,Calm,Calm,-,N/A,,Scattered Clouds,0,2013-04-12 15:21:00
11:53 AM,60.1,43.0,53,29.88,10.0,Variable,4.6,-,N/A,,Scattered Clouds,0,2013-04-12 15:53:00
12:24 PM,60.8,44.6,55,29.90,10.0,Variable,5.8,-,N/A,,Mostly Cloudy,0,2013-04-12 16:24:00
12:46 PM,60.8,42.8,52,29.91,10.0,Variable,4.6,-,N/A,,Overcast,0,2013-04-12 16:46:00
12:53 PM,61.0,42.1,50,29.88,10.0,NNW,8.1,-,N/A,,Overcast,340,2013-04-12 16:53:00
1:53 PM,62.1,41.0,46,29.87,10.0,Variable,3.5,-,N/A,,Overcast,0,2013-04-12 17:53:00
2:53 PM,64.9,39.9,40,29.87,10.0,Variable,5.8,-,N/A,,Overcast,0,2013-04-12 18:53:00
3:53 PM,66.0,39.9,38,29.85,10.0,Variable,3.5,-,N/A,,Overcast,0,2013-04-12 19:53:00
4:53 PM,66.0,39.9,38,29.85,10.0,Variable,5.8,-,N/A,,Mostly Cloudy,0,2013-04-12 20:53:00
5:53 PM,66.0,39.9,38,29.85,10.0,Variable,4.6,-,N/A,,Clear,0,2013-04-12 21:53:00
6:53 PM,64.0,39.0,40,29.87,10.0,Variable,4.6,-,N/A,,Clear,0,2013-04-12 22:53:00
7:53 PM,61.0,37.9,42,29.88,10.0,Calm,Calm,-,N/A,,Clear,0,2013-04-12 23:53:00
8:53 PM,53.1,43.0,69,29.90,10.0,Calm,Calm,-,N/A,,Clear,0,2013-04-13 00:53:00
9:53 PM,54.0,41.0,62,29.93,10.0,Calm,Calm,-,N/A,,Clear,0,2013-04-13 01:53:00
10:53 PM,50.0,42.1,74,29.95,10.0,Calm,Calm,-,N/A,,Clear,0,2013-04-13 02:53:00
11:53 PM,50.0,41.0,71,29.95,10.0,Calm,Calm,-,N/A,,Clear,0,2013-04-13 03:53:00